Regional Weather Roundup
Issued by NWS

Home | Current Version | Previous Version | Graphics & Text | Print | Product List | Glossary On
Versions: 1 2 3 4 5 6 7 8 9 10 11 12 13 14 15 16 17 18 19 20 21 22 23 24 25 26 27 28 29 30 31 32 33 34 35 36 37 38 39 40 41 42 43 44 45 46 47 48 49 50
000
ASUS45 KBOU 051110
RWRCO

WEATHER ROUNDUP FOR COLORADO
NATIONAL WEATHER SERVICE DENVER/BOULDER CO
500 AM MDT SUN JUL 05 2015

NOTE: "FAIR" INDICATES FEW OR NO CLOUDS BELOW 12000 FEET WITH NO
SIGNIFICANT WEATHER AND/OR OBSTRUCTIONS TO VISIBILITY.

COZ001>005-013-030-031-051200-
...NORTHWEST COLORADO...

CITY           SKY/WX    TMP DP  RH WIND       PRES   REMARKS
CRAIG          CLOUDY    60  54  80 CALM      30.15R
HAYDEN         CLOUDY    61  46  59 SE3       30.17R
MEEKER         CLOUDY    67  53  61 SW14      30.18R
MOUNT WERNER   NOT AVBL
STEAMBOAT SPGS CLOUDY    54  45  73 CALM      30.19R
WALDEN         MOCLDY    46  41  81 SE8       30.25R
$$

COZ006>008-011-051200-
...WEST CENTRAL VALLEYS...

CITY           SKY/WX    TMP DP  RH WIND       PRES   REMARKS
GRAND JUNCTION LGT RAIN  64  62  93 W5        30.10S
MONTROSE       CLOUDY    68  53  58 N9        30.16S
EAGLE          CLOUDY    59  48  67 NE5       30.20R
RIFLE          CLOUDY    64  56  75 CALM      30.13R
DELTA          CLOUDY    73  56  53 W6        30.11S
NUCLA          LGT RAIN  63  59  88 SW3       30.21F
$$

COZ017>023-064>068-051200-
...SOUTHWEST COLORADO...

CITY           SKY/WX    TMP DP  RH WIND       PRES   REMARKS
DURANGO        MOCLDY    56  56 100 NE3       30.22R
CORTEZ         CLOUDY    63  57  81 NE3       30.16F
PAGOSA SPRINGS MOCLDY    53  53  99 CALM      30.29R
TELLURIDE      CLOUDY    52  51  96 E5        30.39S
WOLF CREEK PAS NOT AVBL
$$

COZ009-010-012-014-032>034-037-058>063-051200-
...CENTRAL COLORADO...

CITY           SKY/WX    TMP DP  RH WIND       PRES   REMARKS
ASPEN          MOCLDY    55  48  77 S7        30.26R
BUENA VISTA    PTCLDY    49  46  88 W5        30.26S
COPPER MTN     MOCLDY    54  37  54 W12       30.56R
BERTHOUD PASS  FAIR      45  36  70 NW15G28   30.59S
COTTONWOOD PAS NOT AVBL
GUNNISON       MOCLDY    54  45  71 N3        30.30R
KREMMLING      MOCLDY    52  43  71 CALM      30.25R
LEADVILLE      MOCLDY    46  43  89 NE7       30.39R
MONARCH PASS   PTCLDY    45  39  81 W20       30.64R
SALIDA         PTCLDY    60  48  66 NW8       30.30S
SUNLIGHT       CLOUDY    52  46  82 SW6       30.48R
WILKERSON PASS MOCLDY    52  37  58 W8        30.50F
$$

COZ069>075-051200-
...SAN LUIS VALLEY/SANGRE DE CRISTO MOUNTAINS...

CITY           SKY/WX    TMP DP  RH WIND       PRES   REMARKS
ALAMOSA        MOCLDY    50  46  86 SW5       30.25R
LA VETA PASS   MOCLDY    46  41  81 MISG      30.39F
SAGUACHE       PTCLDY    54  50  87 NW12      30.28S
$$

COZ035-036-038>040-051200-
...NORTHERN COLORADO FRONT RANGE...

CITY           SKY/WX    TMP DP  RH WIND       PRES   REMARKS
DENVER INTL AP MOCLDY    66  50  56 SW7       29.99R
DMNS CITY PARK   N/A     66  51  57 E8        29.99R
AURORA         MOCLDY    65  50  57 S6        30.02R
FRONT RANGE AP MOCLDY    68  52  56 MISG      30.01R
ERIE MUNI ARPT MOCLDY    60  52  75 S5        29.96S
BOULDER MUN AP MOCLDY    64  52  63 W5        29.97S
CENTENNIAL     MOCLDY    63  51  65 SE5       30.03R
BROOMFIELD     MOCLDY    66  50  55 W5        30.01R
FORT COLLINS   PTCLDY    64  54  68 S3        29.96S
LONGMONT       PTCLDY    63  53  69 CALM      29.98S
$$

COZ041-046-047-076>085-087-088-051200-
...PIKES PEAK/PALMER DIVIDE AND SOUTHERN FOOTHILLS...

CITY           SKY/WX    TMP DP  RH WIND       PRES   REMARKS
COLO. SPRINGS  MOCLDY    62  50  64 N6        30.07R
A. F. ACADEMY  MOCLDY    59  49  69 N5        30.08S
ELLICOTT       PTCLDY   N/A N/A N/A E5        30.05S
FALCON         PTCLDY    62  46  56 N3        30.12S
FORT CARSON    PTCLDY    63  50  63 NW6       30.03S
LIMON          PTCLDY    52  51  97 N3        30.01R
MONUMENT HILL  PTCLDY    61  45  55 SW7       30.13S
TRINIDAD       CLEAR     60  51  72 NW9       30.05S
$$

COZ042>045-048>051-090-091-051200-
...NORTHEAST COLORADO...

CITY           SKY/WX    TMP DP  RH WIND       PRES   REMARKS
GREELEY ARPT   PTCLDY    61  55  82 S3        29.95R
AKRON          CLEAR     67  52  58 SW7       29.94R
BURLINGTON     CLEAR     62  57  83 S7        29.92S
WRAY           CLEAR     65  58  79 S3        29.89S
STERLING       CLEAR     61  55  82 SW5         N/A
HOLYOKE        CLEAR     63  59  88 S5        29.87F
FORT MORGAN    CLEAR     59  51  74 NW6       29.95R
$$

COZ086-089-092>099-051200-
...SOUTHEAST COLORADO...

CITY           SKY/WX    TMP DP  RH WIND       PRES   REMARKS
PUEBLO         PTCLDY    62  55  77 W9        29.95S
LA JUNTA       PTCLDY    69  52  54 SW8       29.93R
LAMAR          PTCLDY    62  57  83 NE6       29.89R
SPRINGFIELD      N/A     64  59  83 SW10      29.97R
$$



USA.gov is the U.S. government's official web portal to all federal, state and local government web resources and services.